Weather History for KCOU - June, 2013

Change the Weather History Date:

Tuesday, June 18, 2013

  Actual Average Record
Temperature  
Mean Temperature 76 °F 74 °F  
Max Temperature 87 °F 84 °F 100 °F (1953)
Min Temperature 64 °F 64 °F 50 °F (1999)
Degree Days  
Heating Degree Days 0 0  
Month to date heating degree days 6 9  
Since 1 June heating degree days 6 9  
Since 1 July heating degree days 4902 5021  
Cooling Degree Days 11 9  
Month to date cooling degree days 109 123  
Year to date cooling degree days 243 226  
Since 1 June cooling degree days 109 123  
Growing Degree Days 26 (Base 50)    
Moisture  
Dew Point 62 °F    
Average Humidity 68    
Maximum Humidity 93    
Minimum Humidity 42    
Precipitation  
Precipitation 0.00 in 0.15 in 1.15 in (1973)
Month to date precipitation 1.45 2.70  
Year to date precipitation 28.16 19.25  
Snow  
Snow 0.00 in 0.00 in 0.00 in (2012)
Month to date snowfall 0.0 0.0  
Since 1 June snowfall 0.0 0.0  
Since 1 July snowfall 35.0 18.0  
Snow Depth 0.00 in    
Sea Level Pressure  
Sea Level Pressure 29.97 in    
Wind  
Wind Speed 6 mph (NW)    
Max Wind Speed 14 mph    
Max Gust Speed 19 mph    
Visibility 10 miles    
Events      
T = Trace of Precipitation, MM = Missing Value Source: NWS Daily Summary

Daily Weather History Graph

Daily Weather History Graph

Search for Another Location

Airport or City:

Trip Planner

Search our weather history database for the weather conditions in past years. The results will help you decide how hot, cold, wet, or windy it might be!

Date:

Astronomy

Jun. 18, 2013 Rise Set
Actual Time 5:43 AM CDT 8:36 PM CDT
Civil Twilight 5:11 AM CDT 9:08 PM CDT
Nautical Twilight 4:31 AM CDT 9:49 PM CDT
Astronomical Twilight 3:44 AM CDT 10:35 PM CDT
Moon 3:24 PM CDT (6/18) 1:49 AM CDT (6/18)
Length of Visible Light 15h 57m
Length of Day
14h 53m
Waxing Gibbous, 71% of the Moon is Illuminated
Jun 18
Waxing Gibbous
Jun 23
Full
Jun 29
Last Quarter
Jul 8
New
Jul 15
First Quarter

Hourly Weather History & Observations

Time (CDT) Temp. Heat Index Dew Point Humidity Pressure Visibility Wind Dir Wind Speed Gust Speed Precip Events Conditions
12:54 AM 64.0 °F - 63.0 °F 96% 29.95 in 10.0 mi WNW 6.9 mph - N/A   Clear
1:54 AM 64.0 °F - 63.0 °F 96% 29.94 in 10.0 mi WNW 4.6 mph - N/A   Clear
2:54 AM 64.0 °F - 63.0 °F 96% 29.94 in 10.0 mi WNW 4.6 mph - N/A   Clear
3:54 AM 64.0 °F - 62.1 °F 93% 29.96 in 10.0 mi WNW 8.1 mph - N/A   Clear
4:54 AM 64.0 °F - 62.1 °F 93% 29.96 in 10.0 mi NW 5.8 mph - N/A   Clear
5:54 AM 64.0 °F - 62.1 °F 93% 29.97 in 10.0 mi WNW 5.8 mph - N/A   Clear
6:54 AM 64.9 °F - 63.0 °F 93% 29.98 in 10.0 mi West 3.5 mph - N/A   Clear
7:54 AM 70.0 °F - 66.0 °F 87% 29.97 in 10.0 mi WNW 6.9 mph - N/A   Partly Cloudy
8:54 AM 73.9 °F - 69.1 °F 85% 29.98 in 10.0 mi WNW 9.2 mph - N/A   Clear
9:54 AM 78.1 °F - 66.9 °F 68% 29.98 in 10.0 mi WNW 8.1 mph - N/A   Clear
10:54 AM 82.0 °F 83.8 °F 64.9 °F 56% 29.98 in 10.0 mi Calm Calm - N/A   Clear
11:54 AM 84.0 °F 85.4 °F 64.0 °F 51% 29.99 in 10.0 mi North 10.4 mph - N/A   Clear
12:54 PM 84.0 °F 85.8 °F 64.9 °F 53% 30.00 in 10.0 mi NNE 9.2 mph - N/A   Scattered Clouds
1:54 PM 86.0 °F 85.7 °F 60.1 °F 41% 29.99 in 10.0 mi NNW 5.8 mph - N/A   Clear
2:54 PM 86.0 °F 85.7 °F 60.1 °F 41% 29.97 in 10.0 mi NNW 4.6 mph - N/A   Clear
3:54 PM 86.0 °F 86.1 °F 61.0 °F 43% 29.96 in 10.0 mi NW 11.5 mph - N/A   Clear
4:54 PM 86.0 °F 85.7 °F 60.1 °F 41% 29.95 in 10.0 mi NW 10.4 mph - N/A   Clear
5:54 PM 81.0 °F 81.7 °F 61.0 °F 50% 29.96 in 10.0 mi North 11.5 mph - N/A   Clear
6:54 PM 78.1 °F - 59.0 °F 52% 29.96 in 10.0 mi North 10.4 mph - N/A   Clear
7:54 PM 75.9 °F - 59.0 °F 56% 29.96 in 10.0 mi Calm Calm - N/A   Partly Cloudy
8:54 PM 72.0 °F - 61.0 °F 68% 29.96 in 10.0 mi North 6.9 mph - N/A   Clear
9:54 PM 71.1 °F - 60.1 °F 68% 29.98 in 10.0 mi North 4.6 mph - N/A   Clear
10:54 PM 68.0 °F - 62.1 °F 81% 29.99 in 10.0 mi Calm Calm - N/A   Clear
11:54 PM 66.9 °F - 61.0 °F 81% 29.99 in 10.0 mi West 4.6 mph - N/A   Clear